Hourly Data Report for October 08, 2018

MONTREAL INTL A
QUEBEC
Current Station Operator: NAVCAN

45°28'14.000" N
73°44'27.000" W
36.00 m
7025251
71627
YUL

Download Data

Hourly Data (October 2018)
Hourly Data Report for October 8, 2018
TIME
LST
Temp Definition
°C
Dew Point Definition
°C
Rel Hum Definition
%
Precip. Amount Definition
mm

Wind Dir Definition
10's deg

Wind Spd Definition
km/h
Visibility Definition
km
Stn Press Definition
kPa
Hmdx Definition


Wind Chill Definition


Weather Definition


00:00 6.2 1.9 73   2 20 24.1 102.69     LegendNANA
01:00 6.2 1.7 73   3 22 24.1 102.74     Mostly Cloudy
02:00 6.1 1.5 73   3 23 24.1 102.73     LegendNANA
03:00 6.1 1.8 74   3 20 24.1 102.77     LegendNANA
04:00 6.0 1.9 75   1 18 24.1 102.80     Cloudy
05:00 6.0 2.4 78   3 18 24.1 102.78     LegendNANA
06:00 6.2 3.0 80   3 18 24.1 102.78     LegendNANA
07:00 6.5 3.4 81   5 14 24.1 102.79     Mostly Cloudy
08:00 7.0 3.3 77   5 17 24.1 102.81     LegendNANA
09:00 8.3 4.1 75   6 17 24.1 102.78     LegendNANA
10:00 9.0 3.7 69   5 20 24.1 102.75     Cloudy
11:00 10.0 4.3 68   4 16 24.1 102.69     LegendNANA
12:00 10.2 4.0 65   4 18 24.1 102.61     LegendNANA
13:00 10.6 3.6 62   7 16 24.1 102.53     Cloudy
14:00 10.6 4.7 67   7 19 24.1 102.35     LegendNANA
15:00 9.5 6.5 81   5 19 9.7 102.29     Rain, Fog
16:00 9.0 7.3 89   6 17 16.1 102.16     Cloudy
17:00 8.5 7.5 93   4 15 16.1 102.09     Rain
18:00 8.2 7.5 95   3 16 9.7 102.09     Rain
19:00 8.4 7.5 94   2 17 24.1 102.03     Cloudy
20:00 8.0 7.1 94   1 14 24.1 102.01     LegendNANA
21:00 8.0 7.1 94   1 15 24.1 101.96     LegendNANA
22:00 8.0 7.2 95   2 13 24.1 101.89     Cloudy
23:00 8.2 7.5 95   1 9 16.1 101.83     LegendNANA

Notes on Data Quality.

Legend

  • E = Estimated
  • M = Missing
  • NA = Not Available*
  • [empty] = Indicates an unobserved value
Date modified: